STARLINK-1364, 45589

Orbit data source: Space-Track

STARLINK-1364, 45589 is a payload satellite owned by SpaceX/Seattle (US) in LEO that was launched on Wed, 22 Apr 2020 UTC via an FALCON 9 launch vehicle from the Air Force Eastern Test Range (AFETR). Payload-class satellites include a variety of spacecraft equipped with specific instruments for various scientific and technological missions. These include communications satellites like Starlink; space stations such as the ISS; scientific satellites like the Hubble; Earth observation satellites from companies like Planet Labs, Umbra, and HawkEye 360; GPS; miniature CubeSats for education and research; and military/defense satellites.

Loading next visibility...
Identifier
45589, 2020-025BL
Orbit
LEO
Country
Flag of USUS
Related business
Manufacturer
SpaceX/Seattle
Mission
Partially operational Commercial Communications
Bus & Motor
STARLINK, Unknown motor
Mass
260 kg wet, ~248 kg dry
Launch date (UTC)
2020-04-22 (6 years ago)
Launch vehicle
FALCON 9
Launch site
Air Force Eastern Test Range (AFETR)
Object type
Payload
Rocket body
Debris
Shape & HBR
Box + 1 Pan, 10.1 m
Radar Cross Section
13.562 m², Large (>1 m²)

Expand to show TLE details & history
Last TLE update: 11 hours ago

TLE from 11 hours ago
0 STARLINK-1364
1 45589U 20025BL  26170.71779716  .00056640  00000-0  45115-3 0  9991
2 45589  53.0424 286.5947 0002147 340.9930  19.1006 15.70649906341613
Epoch: 2026-06-19T17:13Z
TLE epoch observation values (Epoch: 2026-06-19T17:13:37.674Z)
Latitude
-0.00005°
Longitude
120.24493°
Altitude
356.575 km
Speed
7.697 km/s
True Right ascension
19h 06m 22s
True Declination
0° 00' 00"
Sunlit
Object was in full shadow at epoch
Visualization orbit readout
Latitude
Unknown
Longitude
Unknown
Altitude
Unknown
Speed
Unknown
Apparent Right ascension
Unknown
Apparent Declination
Unknown
Sunlit
N/A
Visualization observer readout
Local Sidereal Time
14:41:43
Azimuth
Unknown
Elevation
Unknown
Doppler factor
Unknown
Orbital elements
Apogee altitude
358.765 km
Perigee altitude
355.872 km
Semi-major axis
6,735.456 km
Eccentricity
0.00021
Inclination
53.0424°
RAAN
286.5947°
Arg. of periapsis
340.993°
True anomaly
19.10865°
Mean anomaly
19.1006°
Eccentric anomaly
19.10463°
Mean motion
3.92638 °/min
Orbital period
91.69 mins
BSTAR
0.00045115
Loading maneuver chart data...
Computing Atmospheric mass density...

Documentation

Showing up to 5 results
|